www.pogodaiklimat.ru

Погода и климат >> Архив погоды >> Бразилия >> Мату-Гросу >> Алту-Такуари


ПОГОДА в Алту-Такуари

  • Прогноз погоды в Алту-Такуари
  • Монитор погоды в Алту-Такуари

АРХИВ ПОГОДЫ в Алту-Такуари

Время (UTC), дата Ветер
(напр.,м/с)
 
Видим.   Явления Облачность Т
(С)
Тd
(С)
f
(%)
Тe
(С)
Тes
(С)
Комфортность P
(гПа)
Po
(гПа)
Тmin
(С)
Tmax
(С)
R
(мм)
R24
(мм)
S
(см)
22 15.04 штиль 0 н/о н/о +22.1 +20.6 91 +28 +28 душно 1013.7 917.4
23 15.04 штиль 0 н/о н/о +22.1 +20.7 92 +28 +28 душно 1014.8 918.4 0.2
00 16.04 штиль 0 н/о н/о +22.1 +20.9 93 +29 +29 очень
душно
1015.6 919.1
01 16.04 штиль 0 н/о н/о +21.6 +20.8 95 +27 +27 душно 1016.2 919.5
02 16.04 штиль 0 н/о н/о +21.6 +20.8 95 +27 +27 душно 1016.0 919.3 0.2
03 16.04 штиль 0 н/о н/о +21.4 +20.7 96 +27 +27 душно 1015.4 918.7
04 16.04 штиль 0 н/о н/о +21.0 +20.5 97 +26 +26 душно 1015.6 918.8
05 16.04 штиль 0 н/о н/о +20.5 +20.1 98 +25 +25 комфорт 1015.4 918.4
06 16.04 штиль 0 н/о н/о +20.3 +20.0 98 +24 +24 комфорт 1015.0 918.0 0.2
07 16.04 штиль 0 н/о н/о +20.4 +20.0 98 +24 +24 комфорт 1014.5 917.6
08 16.04 штиль 0 н/о н/о +20.4 +20.0 98 +24 +24 комфорт 1015.0 918.0
09 16.04 штиль 0 н/о н/о +21.1 +20.6 97 +26 +26 душно 1015.5 918.7
10 16.04 штиль 0 н/о н/о +21.2 +20.4 95 +26 +26 душно 1016.0 919.2 0.2
11 16.04 штиль 0
{1}
н/о н/о +21.4 +20.5 95 +27 +27 душно 1016.3 919.5
12 16.04 штиль 0
{2}
н/о н/о +24.0 +21.3 85 +30 +30 очень
душно
1015.4 919.5
13 16.04 штиль 0
{2}
н/о н/о +25.4 +22.3 83 +33 +33 очень
душно
1015.4 919.9
14 16.04 штиль 0
{4}
н/о н/о +26.4 +21.5 74 +34 +34 очень
душно
1015.6 920.4
15 16.04 штиль 0
{2}
н/о н/о +27.3 +21.6 71 +35 +35 очень
душно
1014.9 920.1 0.2
16 16.04 штиль 0
{4}
н/о н/о +27.6 +22.3 73 +36 +36 очень
душно
1013.4 918.8
17 16.04 штиль 0
{3}
н/о н/о +26.8 +21.3 72 +34 +34 очень
душно
1012.1 917.4
18 16.04 штиль 0 н/о н/о +26.6 +21.5 74 +34 +34 очень
душно
1011.4 916.7
19 16.04 штиль 0 н/о н/о +26.4 +21.3 74 +34 +34 очень
душно
1010.9 916.2
20 16.04 штиль 0 н/о н/о +25.5 +21.5 79 +33 +33 очень
душно
1011.5 916.4
21 16.04 штиль 0 н/о н/о +24.0 +21.6 86 +31 +31 очень
душно
1012.2 916.6
22 16.04 штиль 0 н/о н/о +22.4 +21.0 92 +29 +29 очень
душно
1013.1 916.9
23 16.04 штиль 0 н/о н/о +22.2 +21.0 93 +29 +29 очень
душно
1013.8 917.5
00 17.04 штиль 0 н/о н/о +21.4 +20.3 93 +27 +27 душно 1014.8 918.2
01 17.04 штиль 0 н/о н/о +21.2 +20.5 96 +26 +26 душно 1015.6 918.8
02 17.04 штиль 0 н/о н/о +21.8 +21.1 96 +28 +28 душно 1015.4 918.8
03 17.04 штиль 0 н/о н/о +20.6 +19.6 94 +25 +25 комфорт 1014.9 918.0
04 17.04 штиль 0 н/о н/о +20.5 +20.1 98 +25 +25 комфорт 1014.4 917.5
05 17.04 штиль 0 н/о н/о +20.6 +20.2 98 +25 +25 комфорт 1013.7 916.9
06 17.04 штиль 0 н/о н/о +19.7 +19.3 98 +22 +22 комфорт 1013.7 916.6
07 17.04 штиль 0 н/о н/о +20.3 +19.9 98 +24 +24 комфорт 1013.1 916.3
08 17.04 штиль 0 н/о н/о +19.6 +19.1 97 +22 +22 комфорт 1013.4 916.3
09 17.04 штиль 0 н/о н/о +19.0 +18.6 98 +21 +21 комфорт 1013.8 916.5
10 17.04 штиль 0 н/о н/о +21.1 +20.7 98 +26 +26 душно 1013.7 917.1
11 17.04 штиль 0 н/о н/о +21.9 +21.1 95 +28 +28 душно 1014.5 918.0
12 17.04 штиль 0 н/о н/о +23.9 +21.7 88 +31 +31 очень
душно
1014.3 918.5
13 17.04 штиль 0 н/о н/о +26.3 +21.9 77 +34 +34 очень
душно
1013.8 918.8
14 17.04 штиль 0 н/о н/о +27.7 +21.9 71 +36 +36 очень
душно
1013.3 918.7
15 17.04 штиль 0 н/о н/о +27.6 +20.0 63 +34 +34 очень
душно
1013.0 918.4
16 17.04 штиль 0 н/о н/о +29.1 +20.1 58 +35 +35 очень
душно
1011.7 917.7
17 17.04 штиль 0 н/о н/о +28.7 +20.3 60 +35 +35 очень
душно
1011.0 916.9
18 17.04 штиль 0
{4}
н/о н/о +26.3 +22.4 79 +34 +34 очень
душно
1011.0 916.2
19 17.04 штиль 0 н/о н/о +27.3 +21.1 69 +34 +34 очень
душно
1009.8 915.4
20 17.04 штиль 0 н/о н/о +27.1 +20.9 69 +34 +34 очень
душно
1009.8 915.4
21 17.04 штиль 0 н/о н/о +24.9 +20.4 76 +31 +31 очень
душно
1010.9 915.7
22 17.04 штиль 0 н/о н/о +22.9 +20.2 85 +30 +30 очень
душно
1012.1 916.2
23 17.04 штиль 0 н/о н/о +20.7 +19.3 92 +25 +25 комфорт 1013.3 916.6
01 18.04 штиль 0 н/о н/о +20.4 +19.2 93 +24 +24 комфорт 1014.6 917.7
02 18.04 штиль 0 н/о н/о +20.9 +19.7 93 +25 +25 комфорт 1014.7 917.9 0.2
03 18.04 штиль 0 н/о н/о +19.9 +19.0 95 +23 +23 комфорт 1014.6 917.5
04 18.04 штиль 0 н/о н/о +20.2 +19.2 94 +24 +24 комфорт 1014.2 917.2
05 18.04 штиль 0 н/о н/о +19.7 +19.0 96 +22 +22 комфорт 1014.2 917.1
06 18.04 штиль 0
{3}
н/о н/о +21.2 +20.3 95 +26 +26 душно 1013.4 916.8
07 18.04 штиль 0
{3}
н/о н/о +20.5 +19.3 93 +24 +24 комфорт 1012.8 916.1
08 18.04 штиль 0 н/о н/о +19.6 +18.8 95 +22 +22 комфорт 1013.1 916.1
09 18.04 штиль 0 н/о н/о +19.6 +18.9 96 +22 +22 комфорт 1013.6 916.5
10 18.04 штиль 0 н/о н/о +20.4 +19.9 97 +24 +24 комфорт 1014.1 917.2
11 18.04 штиль 0 н/о н/о +24.2 +21.1 83 +31 +31 очень
душно
1013.6 917.9
12 18.04 штиль 0 н/о н/о +25.4 +21.5 79 +32 +32 очень
душно
1013.7 918.4
13 18.04 штиль 0
{2}
н/о н/о +26.8 +21.8 74 +34 +34 очень
душно
1013.7 918.8
14 18.04 штиль 0
{3}
н/о н/о +26.9 +21.0 70 +34 +34 очень
душно
1013.5 918.7
15 18.04 штиль 0
{2}
н/о н/о +29.0 +20.8 61 +36 +36 очень
душно
1012.1 918.0
16 18.04 штиль 0
{3}
н/о н/о +27.9 +20.3 63 +34 +34 очень
душно
1011.3 917.0
17 18.04 штиль 0
{2}
н/о н/о +28.1 +19.7 60 +34 +34 очень
душно
1010.3 916.1
18 18.04 штиль 0
{2}
н/о н/о +28.4 +19.5 59 +34 +34 очень
душно
1009.3 915.3
19 18.04 штиль 0
{1}
н/о н/о +28.7 +19.0 56 +34 +34 очень
душно
1008.6 914.8
20 18.04 штиль 0
{3}
н/о н/о +25.5 +20.9 76 +32 +32 очень
душно
1009.9 915.0
21 18.04 штиль 0
{5}
н/о н/о +21.3 +20.2 93 +26 +26 душно 1012.4 916.0
22 18.04 штиль 0
{3}
н/о н/о +21.5 +20.3 93 +27 +27 душно 1012.7 916.3
23 18.04 штиль 0 н/о н/о +21.7 +20.5 93 +27 +27 душно 1012.8 916.4
01 19.04 штиль 0
{3}
н/о н/о +21.2 +20.4 95 +26 +26 душно 1014.8 918.1
02 19.04 штиль 0 н/о н/о +21.4 +20.5 95 +27 +27 душно 1014.4 917.8
03 19.04 штиль 0 н/о н/о +21.0 +20.2 95 +26 +26 душно 1014.1 917.4
04 19.04 штиль 0 н/о н/о +21.5 +20.0 91 +27 +27 душно 1013.6 917.1
05 19.04 штиль 0 н/о н/о +20.9 +20.0 95 +25 +25 комфорт 1013.2 916.6
06 19.04 штиль 0 н/о н/о +21.1 +20.0 93 +26 +26 душно 1013.1 916.5
07 19.04 штиль 0 н/о н/о +20.9 +20.0 95 +25 +25 комфорт 1013.1 916.5
08 19.04 штиль 0 н/о н/о +20.8 +20.0 95 +25 +25 комфорт 1013.0 916.3
09 19.04 штиль 0 н/о н/о +21.0 +19.9 93 +26 +26 душно 1013.0 916.4
10 19.04 штиль 0 н/о н/о +20.5 +19.8 96 +24 +24 комфорт 1014.1 917.2
11 19.04 штиль 0 н/о н/о +22.8 +20.5 87 +30 +30 очень
душно
1014.5 918.3
12 19.04 штиль 0 н/о н/о +24.1 +20.6 81 +30 +30 очень
душно
1014.7 918.9
13 19.04 С 1
{4}
н/о н/о +26.2 +20.0 69 +32 +32 очень
душно
1014.7 919.5
14 19.04 штиль 0
{4}
н/о н/о +27.6 +20.7 66 +34 +34 очень
душно
1014.1 919.4
15 19.04 штиль 0
{4}
н/о н/о +28.5 +21.2 65 +36 +36 очень
душно
1013.2 918.9
16 19.04 штиль 0
{3}
н/о н/о +29.7 +20.8 59 +37 +37 очень
душно
1012.0 918.1
17 19.04 штиль 0 н/о н/о +29.2 +20.2 58 +36 +36 очень
душно
1010.7 916.8
18 19.04 штиль 0
{3}
н/о н/о +27.8 +19.2 60 +33 +33 очень
душно
1010.8 916.5
19 19.04 штиль 0
{4}
н/о н/о +25.2 +20.4 75 +31 +31 очень
душно
1011.5 916.3
20 19.04 штиль 0 н/о н/о +25.4 +21.8 80 +33 +33 очень
душно
1011.3 916.2
21 19.04 штиль 0
{3}
н/о н/о +20.4 +19.1 92 +24 +24 комфорт 1013.9 917.0
22 19.04 штиль 0
{4}
н/о н/о +21.4 +19.1 87 +26 +26 душно 1012.7 916.3
23 19.04 штиль 0 н/о н/о +20.8 +19.5 92 +25 +25 комфорт 1013.6 916.9
01 20.04 штиль 0 н/о н/о +20.7 +19.8 95 +25 +25 комфорт 1014.9 918.0
02 20.04 штиль 0 н/о н/о +20.3 +19.5 95 +24 +24 комфорт 1015.0 918.0
03 20.04 штиль 0 н/о н/о +19.4 +18.7 96 +22 +22 комфорт 1015.5 918.2
04 20.04 штиль 0 н/о н/о +18.9 +18.4 97 +20 +20 1015.3 917.8
05 20.04 штиль 0 н/о н/о +20.2 +19.3 95 +24 +24 комфорт 1014.4 917.4
06 20.04 штиль 0 н/о н/о +20.6 +19.6 94 +25 +25 комфорт 1013.9 917.1
07 20.04 штиль 0 н/о н/о +20.5 +19.7 95 +24 +24 комфорт 1014.1 917.2
08 20.04 штиль 0 н/о н/о +20.5 +19.2 92 +24 +24 комфорт 1014.4 917.5
09 20.04 штиль 0 н/о н/о +21.0 +18.5 86 +25 +25 комфорт 1014.5 917.8
10 20.04 штиль 0
{2}
н/о н/о +20.8 +18.3 86 +25 +25 комфорт 1015.5 918.6 0.2
11 20.04 штиль 0 н/о н/о +21.7 +18.3 81 +26 +26 душно 1016.0 919.3
12 20.04 штиль 0
{1}
н/о н/о +23.3 +18.3 73 +29 +29 душно 1015.9 919.7
13 20.04 штиль 0 н/о н/о +25.7 +18.9 66 +31 +31 очень
душно
1015.2 919.8
14 20.04 штиль 0 н/о н/о +26.7 +18.9 62 +32 +32 очень
душно
1015.0 920.0
15 20.04 штиль 0 н/о н/о +28.8 +20.2 60 +35 +35 очень
душно
1013.6 919.3
16 20.04 С 1
{4}
н/о н/о +29.3 +19.9 57 +36 +36 очень
душно
1012.3 918.3
17 20.04 штиль 0
{3}
н/о н/о +29.9 +20.1 56 +36 +36 очень
душно
1010.9 917.2
18 20.04 штиль 0 н/о н/о +27.8 +21.3 68 +35 +35 очень
душно
1010.6 916.3
19 20.04 штиль 0 н/о н/о +26.2 +21.1 74 +33 +33 очень
душно
1010.5 915.7
20 20.04 штиль 0
{3}
н/о н/о +25.5 +21.2 77 +32 +32 очень
душно
1011.6 916.5
21 20.04 штиль 0
{3}
н/о н/о +24.5 +21.3 82 +31 +31 очень
душно
1011.7 916.3
22 20.04 штиль 0 н/о н/о +22.8 +21.1 90 +30 +30 очень
душно
1012.6 916.6
23 20.04 штиль 0 н/о н/о +21.8 +21.0 95 +28 +28 душно 1013.4 917.0
00 21.04 штиль 0 н/о н/о +21.8 +20.2 91 +28 +28 душно 1014.2 917.7
01 21.04 штиль 0 н/о н/о +21.0 +20.0 94 +26 +26 душно 1015.2 918.4
02 21.04 штиль 0 н/о н/о +21.0 +20.0 94 +26 +26 душно 1015.3 918.5
03 21.04 штиль 0 н/о н/о +21.4 +20.0 92 +27 +27 душно 1015.1 918.4
04 21.04 штиль 0 н/о н/о +20.7 +20.0 96 +25 +25 комфорт 1014.9 918.0
05 21.04 штиль 0 н/о н/о +21.3 +20.2 93 +26 +26 душно 1013.9 917.3
06 21.04 штиль 0 н/о н/о +20.7 +19.5 93 +25 +25 комфорт 1013.4 916.7
07 21.04 штиль 0 н/о н/о +19.9 +18.9 94 +23 +23 комфорт 1013.5 916.5
08 21.04 штиль 0 н/о н/о +20.8 +19.5 92 +25 +25 комфорт 1012.8 916.2
09 21.04 штиль 0 н/о н/о +20.4 +19.1 92 +24 +24 комфорт 1013.1 916.3
10 21.04 штиль 0 н/о н/о +20.5 +19.3 93 +24 +24 комфорт 1013.7 916.9
11 21.04 штиль 0 н/о н/о +23.6 +19.2 76 +28 +28 душно 1013.2 917.4
12 21.04 штиль 0 н/о н/о +25.5 +19.4 69 +31 +31 очень
душно
1013.5 918.2
13 21.04 штиль 0 н/о н/о +25.3 +20.7 76 +32 +32 очень
душно
1014.5 919.1
14 21.04 штиль 0 н/о н/о +26.7 +20.4 68 +33 +33 очень
душно
1013.7 918.8
15 21.04 штиль 0
{3}
н/о н/о +28.9 +20.6 61 +36 +36 очень
душно
1011.7 917.6
17 21.04 штиль 0
{5}
н/о н/о +27.7 +21.1 67 +35 +35 очень
душно
1010.5 916.2
18 21.04 С 2
{4}
н/о н/о +26.6 +21.0 71 +33 +33 очень
душно
1009.9 915.3
19 21.04 штиль 0
{5}
н/о н/о +24.6 +22.2 87 +32 +32 очень
душно
1010.1 914.9
20 21.04 штиль 0
{1}
н/о н/о +24.6 +22.7 89 +32 +32 очень
душно
1010.0 914.8
21 21.04 штиль 0
{4}
н/о н/о +22.2 +19.5 85 +28 +28 душно 1011.3 915.2
22 21.04 С 1
{4}
н/о н/о +21.6 +19.8 89 +27 +27 душно 1011.5 915.2
23 21.04 штиль 0
{3}
н/о н/о +20.9 +19.9 94 +25 +25 комфорт 1012.6 916.0
01 22.04 штиль 0 н/о н/о +20.4 +19.2 93 +24 +24 комфорт 1014.0 917.1
02 22.04 штиль 0 н/о н/о +20.6 +19.7 95 +25 +25 комфорт 1013.7 916.9
03 22.04 штиль 0 н/о н/о +20.5 +19.0 91 +24 +24 комфорт 1013.4 916.6
04 22.04 штиль 0 н/о н/о +19.8 +18.7 93 +22 +22 комфорт 1013.3 916.3
05 22.04 штиль 0 н/о н/о +19.6 +18.8 95 +22 +22 комфорт 1012.6 915.6
06 22.04 штиль 0 н/о н/о +19.5 +18.8 96 +22 +22 комфорт 1013.5 916.4
07 22.04 штиль 0 н/о н/о +20.0 +19.4 96 +23 +23 комфорт 1013.1 916.2
08 22.04 штиль 0 н/о н/о +19.5 +18.9 96 +22 +22 комфорт 1012.5 915.5
09 22.04 штиль 0 н/о н/о +19.5 +18.8 96 +22 +22 комфорт 1012.7 915.7
10 22.04 штиль 0 н/о н/о +20.2 +19.4 95 +24 +24 комфорт 1013.6 916.7
11 22.04 штиль 0 н/о н/о +21.8 +20.5 92 +28 +28 душно 1013.4 917.0
12 22.04 штиль 0 н/о н/о +22.2 +21.0 93 +29 +29 очень
душно
1014.8 918.4
13 22.04 С 5
{7}
н/о н/о +18.0 +17.6 98 +18 +18 1017.4 919.4 0.2
14 22.04 С 3
{8}
н/о н/о +18.6 +18.1 97 +20 +20 1017.4 919.6
15 22.04 С 2
{5}
н/о н/о +19.9 +18.7 93 +24 +24 комфорт 1015.7 918.5
16 22.04 С 1
{5}
н/о н/о +22.2 +18.9 82 +28 +28 душно 1014.0 917.7
17 22.04 штиль 0
{4}
н/о н/о +24.1 +19.6 76 +29 +29 душно 1012.7 917.1
18 22.04 штиль 0
{4}
н/о н/о +23.5 +18.5 74 +28 +28 душно 1012.1 916.4
19 22.04 штиль 0
{2}
н/о н/о +23.9 +19.4 76 +29 +29 душно 1010.0 914.6
20 22.04 штиль 0
{3}
н/о н/о +23.6 +19.2 76 +28 +28 душно 1011.2 915.6
21 22.04 штиль 0 н/о н/о +22.1 +19.5 85 +28 +28 душно 1012.4 916.2 0.2

 

Местоположение метеостанции Алту-Такуари (Мату-Гросу, Бразилия): широта -17.82 долгота -53.28 высота над уровнем моря 877 м.

В архиве по умолчанию представлена погода в Алту-Такуари за последнюю неделю. Архивные данные за месяц целиком и за предыдущие месяцы, начиная с января 2011 года, Вы можете получить, выбрав интересующий диапазон дат из раскрывающегося списка и нажав кнопку "Ввод!".


*Определитесь, кто Вы:
робот инопланетянин человек

Внимание! Время в таблицах - всемирное. Для получения местного времени необходимо прибавить поправку, которая равна -3 ч.

Смотрите также архив погоды в соседних городах и на ближайших метеорологических станциях:

Погода в Альто-Арагуая (Мату-Гросу, Бразилия) (54 км)
Погода в Коста Рика (Мату-Гросу-ду-Сул, Бразилия) (75 км)
Погода в Минейрусе (Гояс, Бразилия) (77 км)
Погода в Шападан-ду-Суле (Мату-Гросу-ду-Сул, Бразилия) (131 км)
Погода в Итикире (Мату-Гросу, Бразилия) (148 км)
Погода в Соноре (Мату-Гросу-ду-Сул, Бразилия) (158 км)
Погода в Жатаи (Гояс, Бразилия) (166 км)
Погода в Гиратинге (Мату-Гросу, Бразилия) (172 км)
Погода в Кошине (Мату-Гросу-ду-Сул, Бразилия) (172 км)
Погода в Каяпонии (Гояс, Бразилия) (182 км)

Пояснения к столбцам:

Ветер - указаны скорость ветра в м/с - средняя за 10 мин, порывы в срок и между сроками (в фигурных скобках) и направление, откуда дует ветер: С - северный, СВ - северо-восточный, В - восточный, ЮВ - юго-восточный, Ю - южный, ЮЗ - юго-западный, З - западный, СЗ - северо-западный.
Видимость - горизонтальная дальность видимости в метрах или километрах. При видимости от 1 до 10 км при отсутствии осадков обычно наблюдается дымка, при ухудшении видимости до 1 км и менее - туман. В сухую погоду видимость может ухудшаться дымом, пылью или мглою.
Явления - указаны атмосферные явления, наблюдавшиеся в срок или в последний час перед сроком; фигурными скобками обозначены явления, наблюдавшиеся между сроками (за 1-3 часа до срока); квадратными скобками обозначены град или гололедные отложения с указанием их диаметра в мм.
Облачность - указаны через наклонную черту общая и нижняя облачность в баллах и высота нижней границы облаков в метрах; квадратными скобками обозначены формы облаков: Ci - перистые, Cs - перисто-слоистые, Cc - перисто-кучевые, Ac - высококучевые, As - высокослоистые, Sc - слоисто-кучевые, Ns - слоисто-дождевые, Cu - кучевые, Cb - кучево-дождевые. Подробнее классификацию облаков см. в Атласе облаков (PDF).
T - Температура воздуха - температура, измеренная на высоте 2 м над землей.
Td - Температура точки росы - температура, при понижении до которой содержащийся в воздухе водяной пар достигнет насыщения.
f - Относительная влажность воздуха - влажноcть воздуха, измеренная на высоте 2 м над землей.
Te - Эффективная температура - температура, которую ощущает одетый по сезону человек в тени. Характеристика душности погоды. При расчете учитывается влияние влажности воздуха и скорости ветра на теплоощущения человека.
Tes - Эффективная температура на солнце - температура, которую ощущает человек, с поправкой на солнечный нагрев. Характеристика знойности погоды. Зависит от высоты солнца над горизонтом, облачности и скорости ветра. Ночью, в пасмурную погоду, а также при ветре 12 м/с и более поправка равна нулю.
P - Атмосферное давление - приведенное к уровню моря атмосферное давление.
Po - Атмосферное давление - измеренное на уровне метеостанции атмосферное давление.
Tmin - Минимальная температура - минимум температуры воздуха на высоте 2 м над землей.
Tmax - Максимальная температура - максимум температуры воздуха на высоте 2 м над землей.
R - Количество осадков - Количество выпавших осадков за период времени, мм. При наведении курсора мыши на число - период времени, за который выпало указанное количество осадков.
R24 - Количество осадков - Количество выпавших осадков за 24 часа, мм.
S - Снежный покров - Высота снежного покрова, см. При наведении курсора мыши на число - состояние снежного покрова и степень покрытия местности в баллах.